User: anonymous   Login
Location: Cabobito
(9.9667°N, 67.8000°W)
Time: 07:08:13
(UTC+00:00)
Language:

GPS 2-14 Rocket1 - Orbit

View from above orbital plane
View from above orbital plane
View from above satellite
View from above satellite

Ground track
Ground track

The orbit data is extracted from the following two-line orbital elements,

1 22015U 92039B   24166.61706445  .00100580  00000-0  86217-3 0  9996
2 22015  20.7046 278.9921 0016569  30.9510 329.1913 15.67470266780584
Epoch (UTC): 14 June 2024 14:48:34
Eccentricity: 0.0016569
inclination: 20.7046°
perigee height: 355 km
apogee height: 377 km
right ascension of ascending node: 278.9921°
argument of perigee: 30.9510°
revolutions per day: 15.67470266
mean anomaly at epoch: 329.1913°
orbit number at epoch: 78058

The dashed part of the orbit path shows where the satellite is in the earth's shadow,  

DLR